Time,TemperatureF,DewpointF,PressureIn,WindDirection,WindDirectionDegrees,WindSpeedMPH,WindSpeedGustMPH,Humidity,HourlyPrecipIn,Conditions,Clouds,dailyrainin,SoftwareType,DateUTC
2013-01-04 00:02:00,39.0,29.0,28.95,North,360,0.0,-999.0,66,0.00,,,0.00,Rainwise IP-100,2013-01-04 06:02:00,
2013-01-04 00:07:00,38.9,29.0,28.94,North,360,1.9,-999.0,66,0.00,,,0.00,Rainwise IP-100,2013-01-04 06:07:00,
2013-01-04 00:12:00,38.9,29.0,28.93,NNE,22,2.8,-999.0,66,0.00,,,0.00,Rainwise IP-100,2013-01-04 06:12:00,
2013-01-04 00:17:00,38.8,29.0,28.93,NNW,337,1.9,-999.0,66,0.00,,,0.00,Rainwise IP-100,2013-01-04 06:17:00,
2013-01-04 00:22:00,38.8,29.0,28.94,NNW,337,0.0,-999.0,66,0.00,,,0.00,Rainwise IP-100,2013-01-04 06:22:00,
2013-01-04 00:27:00,38.8,29.0,28.94,NNW,337,0.0,-999.0,66,0.00,,,0.00,Rainwise IP-100,2013-01-04 06:27:00,
2013-01-04 00:32:00,38.7,29.0,28.94,NNW,337,0.0,-999.0,66,0.00,,,0.00,Rainwise IP-100,2013-01-04 06:32:00,
2013-01-04 00:37:00,38.6,29.0,28.94,NNW,337,0.0,-999.0,66,0.00,,,0.00,Rainwise IP-100,2013-01-04 06:37:00,
2013-01-04 00:42:00,38.5,29.0,28.94,NNW,337,1.6,-999.0,66,0.00,,,0.00,Rainwise IP-100,2013-01-04 06:42:00,
2013-01-04 00:47:00,38.4,28.0,28.95,NNW,337,0.0,-999.0,67,0.00,,,0.00,Rainwise IP-100,2013-01-04 06:47:00,
2013-01-04 00:52:00,38.3,29.0,28.96,NNW,337,0.0,-999.0,68,0.00,,,0.00,Rainwise IP-100,2013-01-04 06:52:00,
2013-01-04 00:57:00,38.3,29.0,28.94,NNW,337,2.8,-999.0,68,0.00,,,0.00,Rainwise IP-100,2013-01-04 06:57:00,
2013-01-04 01:02:00,38.3,29.0,28.94,NNW,337,1.9,-999.0,68,0.00,,,0.00,Rainwise IP-100,2013-01-04 07:02:00,
2013-01-04 01:07:00,38.3,29.0,28.94,NNE,22,0.0,-999.0,68,0.00,,,0.00,Rainwise IP-100,2013-01-04 07:07:00,
2013-01-04 01:12:00,38.3,29.0,28.95,NNE,22,0.0,-999.0,68,0.00,,,0.00,Rainwise IP-100,2013-01-04 07:12:00,
2013-01-04 01:17:00,38.3,28.0,28.96,NNE,22,0.0,-999.0,67,0.00,,,0.00,Rainwise IP-100,2013-01-04 07:17:00,
2013-01-04 01:22:00,38.4,28.0,28.96,NNW,337,0.0,-999.0,67,0.00,,,0.00,Rainwise IP-100,2013-01-04 07:22:00,
2013-01-04 01:27:00,38.6,29.0,28.96,North,360,1.4,-999.0,67,0.00,,,0.00,Rainwise IP-100,2013-01-04 07:27:00,
2013-01-04 01:32:00,38.9,29.0,28.95,NNW,337,2.6,-999.0,65,0.00,,,0.00,Rainwise IP-100,2013-01-04 07:32:00,
2013-01-04 01:37:00,39.0,28.0,28.96,NW,315,5.4,-999.0,64,0.00,,,0.00,Rainwise IP-100,2013-01-04 07:37:00,
2013-01-04 01:42:00,39.2,28.0,28.95,NNW,337,4.0,-999.0,63,0.00,,,0.00,Rainwise IP-100,2013-01-04 07:42:00,
2013-01-04 01:47:00,39.2,28.0,28.95,North,360,5.8,-999.0,63,0.00,,,0.00,Rainwise IP-100,2013-01-04 07:47:00,
2013-01-04 01:52:00,39.3,28.0,28.95,NNW,337,2.8,-999.0,63,0.00,,,0.00,Rainwise IP-100,2013-01-04 07:52:00,
2013-01-04 01:57:00,39.2,28.0,28.96,North,360,0.0,-999.0,64,0.00,,,0.00,Rainwise IP-100,2013-01-04 07:57:00,
2013-01-04 02:02:00,39.2,28.0,28.96,North,360,4.0,-999.0,64,0.00,,,0.00,Rainwise IP-100,2013-01-04 08:02:00,
2013-01-04 02:07:00,39.2,28.0,28.97,NNW,337,2.8,-999.0,63,0.00,,,0.00,Rainwise IP-100,2013-01-04 08:07:00,
2013-01-04 02:12:00,39.2,28.0,28.99,NW,315,1.9,-999.0,63,0.00,,,0.00,Rainwise IP-100,2013-01-04 08:12:00,
2013-01-04 02:17:00,39.2,28.0,28.99,NNW,337,1.4,-999.0,63,0.00,,,0.00,Rainwise IP-100,2013-01-04 08:17:00,
2013-01-04 02:22:00,39.1,29.0,28.98,North,360,5.6,-999.0,65,0.00,,,0.00,Rainwise IP-100,2013-01-04 08:22:00,
2013-01-04 02:27:00,38.7,29.0,28.98,NW,315,1.4,-999.0,67,0.00,,,0.00,Rainwise IP-100,2013-01-04 08:27:00,
2013-01-04 02:32:00,38.2,29.0,28.99,ENE,67,3.3,-999.0,70,0.00,,,0.00,Rainwise IP-100,2013-01-04 08:32:00,
2013-01-04 02:37:00,37.5,31.0,28.98,North,360,5.6,-999.0,74,0.00,,,0.00,Rainwise IP-100,2013-01-04 08:37:00,
2013-01-04 02:42:00,36.7,31.0,28.98,NNE,22,5.8,-999.0,77,0.00,,,0.00,Rainwise IP-100,2013-01-04 08:42:00,
2013-01-04 02:47:00,36.3,31.0,28.99,NW,315,3.5,-999.0,80,0.00,,,0.00,Rainwise IP-100,2013-01-04 08:47:00,
2013-01-04 02:52:00,35.8,31.0,29.00,NW,315,3.3,-999.0,82,0.00,,,0.00,Rainwise IP-100,2013-01-04 08:52:00,
2013-01-04 02:54:00,35.6,31.0,29.00,NW,315,2.1,-999.0,83,0.06,,,0.01,Rainwise IP-100,2013-01-04 08:54:00,
2013-01-04 02:57:00,35.3,31.0,29.00,NNW,337,0.0,-999.0,84,0.06,,,0.01,Rainwise IP-100,2013-01-04 08:57:00,
2013-01-04 03:03:00,34.7,31.0,29.00,NW,315,5.4,-999.0,86,0.12,,,0.02,Rainwise IP-100,2013-01-04 09:03:00,
2013-01-04 03:08:00,34.0,32.0,29.00,NNW,337,2.1,-999.0,88,0.06,,,0.02,Rainwise IP-100,2013-01-04 09:08:00,
2013-01-04 03:13:00,33.4,31.0,29.00,NW,315,0.0,-999.0,89,0.00,,,0.02,Rainwise IP-100,2013-01-04 09:13:00,
2013-01-04 03:18:00,33.0,31.0,29.01,NW,315,1.4,-999.0,91,0.00,,,0.02,Rainwise IP-100,2013-01-04 09:18:00,
2013-01-04 03:22:00,32.9,31.0,28.99,NNE,22,3.5,-999.0,92,0.00,,,0.02,Rainwise IP-100,2013-01-04 09:22:00,
2013-01-04 03:27:00,32.7,31.0,29.01,NW,315,0.0,-999.0,92,0.00,,,0.02,Rainwise IP-100,2013-01-04 09:27:00,
2013-01-04 03:32:00,32.7,32.0,29.01,North,360,1.9,-999.0,93,0.00,,,0.02,Rainwise IP-100,2013-01-04 09:32:00,
2013-01-04 03:37:00,32.7,32.0,29.00,North,360,3.5,-999.0,93,0.00,,,0.02,Rainwise IP-100,2013-01-04 09:37:00,
2013-01-04 03:42:00,32.7,32.0,29.00,North,360,1.4,-999.0,94,0.00,,,0.02,Rainwise IP-100,2013-01-04 09:42:00,
2013-01-04 03:47:00,32.6,32.0,29.01,North,360,0.0,-999.0,94,0.00,,,0.02,Rainwise IP-100,2013-01-04 09:47:00,
2013-01-04 03:52:00,32.5,32.0,29.00,NNE,22,2.6,-999.0,95,0.00,,,0.02,Rainwise IP-100,2013-01-04 09:52:00,
2013-01-04 03:57:00,32.5,32.0,29.00,North,360,1.4,-999.0,95,0.00,,,0.02,Rainwise IP-100,2013-01-04 09:57:00,
2013-01-04 04:02:00,32.3,31.0,29.00,North,360,1.4,-999.0,95,0.00,,,0.02,Rainwise IP-100,2013-01-04 10:02:00,
2013-01-04 04:07:00,32.2,31.0,28.99,North,360,4.4,-999.0,95,0.00,,,0.02,Rainwise IP-100,2013-01-04 10:07:00,
2013-01-04 04:12:00,32.2,31.0,29.00,NNW,337,2.6,-999.0,95,0.00,,,0.02,Rainwise IP-100,2013-01-04 10:12:00,
2013-01-04 04:17:00,32.1,31.0,29.00,NNW,337,2.3,-999.0,96,0.00,,,0.02,Rainwise IP-100,2013-01-04 10:17:00,
2013-01-04 04:22:00,32.1,31.0,28.99,North,360,3.0,-999.0,96,0.00,,,0.02,Rainwise IP-100,2013-01-04 10:22:00,
2013-01-04 04:27:00,32.1,31.0,28.98,NNE,22,1.9,-999.0,96,0.00,,,0.02,Rainwise IP-100,2013-01-04 10:27:00,
2013-01-04 04:32:00,32.1,31.0,28.98,NNE,22,2.3,-999.0,96,0.00,,,0.02,Rainwise IP-100,2013-01-04 10:32:00,
2013-01-04 04:37:00,32.1,31.0,28.98,NNE,22,2.3,-999.0,96,0.00,,,0.02,Rainwise IP-100,2013-01-04 10:37:00,
2013-01-04 04:42:00,32.1,31.0,28.98,NNE,22,1.2,-999.0,97,0.00,,,0.02,Rainwise IP-100,2013-01-04 10:42:00,
2013-01-04 04:47:00,32.1,31.0,28.98,NNE,22,2.8,-999.0,97,0.00,,,0.02,Rainwise IP-100,2013-01-04 10:47:00,
2013-01-04 04:52:00,32.1,31.0,28.98,NE,45,1.2,-999.0,97,0.00,,,0.02,Rainwise IP-100,2013-01-04 10:52:00,
2013-01-04 04:57:00,32.1,31.0,28.99,North,360,3.7,-999.0,97,0.00,,,0.02,Rainwise IP-100,2013-01-04 10:57:00,
2013-01-04 05:02:00,32.1,31.0,28.98,North,360,1.9,-999.0,97,0.00,,,0.02,Rainwise IP-100,2013-01-04 11:02:00,
2013-01-04 05:07:00,32.0,31.0,28.98,North,360,1.6,-999.0,97,0.00,,,0.02,Rainwise IP-100,2013-01-04 11:07:00,
2013-01-04 05:12:00,32.0,31.0,28.98,North,360,1.4,-999.0,97,0.00,,,0.02,Rainwise IP-100,2013-01-04 11:12:00,
2013-01-04 05:17:00,32.0,31.0,28.98,NNE,22,2.6,-999.0,97,0.00,,,0.02,Rainwise IP-100,2013-01-04 11:17:00,
2013-01-04 05:22:00,32.0,31.0,28.98,NE,45,1.9,-999.0,97,0.00,,,0.02,Rainwise IP-100,2013-01-04 11:22:00,
2013-01-04 05:27:00,32.1,32.0,28.98,ENE,67,1.4,-999.0,98,0.00,,,0.02,Rainwise IP-100,2013-01-04 11:27:00,
2013-01-04 05:32:00,32.1,32.0,28.98,ENE,67,1.9,-999.0,98,0.00,,,0.02,Rainwise IP-100,2013-01-04 11:32:00,
2013-01-04 05:37:00,32.1,32.0,28.97,NE,45,2.3,-999.0,98,0.00,,,0.02,Rainwise IP-100,2013-01-04 11:37:00,
2013-01-04 05:42:00,32.1,32.0,28.98,NE,45,3.0,-999.0,98,0.00,,,0.02,Rainwise IP-100,2013-01-04 11:42:00,
2013-01-04 05:47:00,32.1,32.0,28.98,NE,45,2.8,-999.0,98,0.00,,,0.02,Rainwise IP-100,2013-01-04 11:47:00,
2013-01-04 05:52:00,32.1,32.0,28.98,NNE,22,2.8,-999.0,98,0.00,,,0.02,Rainwise IP-100,2013-01-04 11:52:00,
2013-01-04 05:57:00,32.1,32.0,28.98,NNE,22,3.0,-999.0,98,0.00,,,0.02,Rainwise IP-100,2013-01-04 11:57:00,
2013-01-04 06:02:00,32.1,32.0,28.99,NE,45,2.1,-999.0,98,0.00,,,0.02,Rainwise IP-100,2013-01-04 12:02:00,
2013-01-04 06:07:00,32.1,32.0,28.99,NE,45,2.1,-999.0,98,0.00,,,0.02,Rainwise IP-100,2013-01-04 12:07:00,
2013-01-04 06:12:00,32.0,32.0,28.99,NE,45,2.3,-999.0,98,0.00,,,0.02,Rainwise IP-100,2013-01-04 12:12:00,
2013-01-04 06:17:00,32.0,32.0,28.98,NNE,22,2.3,-999.0,98,0.00,,,0.02,Rainwise IP-100,2013-01-04 12:17:00,
2013-01-04 06:22:00,32.1,32.0,28.98,NNE,22,2.1,-999.0,98,0.00,,,0.02,Rainwise IP-100,2013-01-04 12:22:00,
2013-01-04 06:27:00,32.0,32.0,28.98,NE,45,3.0,-999.0,98,0.00,,,0.02,Rainwise IP-100,2013-01-04 12:27:00,
2013-01-04 06:32:00,32.0,32.0,28.98,NE,45,0.0,-999.0,98,0.00,,,0.02,Rainwise IP-100,2013-01-04 12:32:00,
2013-01-04 06:37:00,32.1,32.0,28.98,ENE,67,3.7,-999.0,98,0.00,,,0.02,Rainwise IP-100,2013-01-04 12:37:00,
2013-01-04 06:42:00,32.1,32.0,28.98,NNE,22,2.6,-999.0,99,0.00,,,0.02,Rainwise IP-100,2013-01-04 12:42:00,
2013-01-04 06:47:00,32.1,32.0,28.98,NE,45,5.1,-999.0,99,0.00,,,0.02,Rainwise IP-100,2013-01-04 12:47:00,
2013-01-04 06:52:00,32.1,32.0,28.98,NE,45,3.3,-999.0,99,0.00,,,0.02,Rainwise IP-100,2013-01-04 12:52:00,
2013-01-04 06:57:00,32.2,32.0,28.98,ENE,67,2.1,-999.0,99,0.00,,,0.02,Rainwise IP-100,2013-01-04 12:57:00,
2013-01-04 07:02:00,32.2,32.0,28.98,NE,45,5.1,-999.0,99,0.00,,,0.02,Rainwise IP-100,2013-01-04 13:02:00,
2013-01-04 07:07:00,32.2,32.0,28.98,NE,45,2.6,-999.0,99,0.00,,,0.02,Rainwise IP-100,2013-01-04 13:07:00,
2013-01-04 07:12:00,32.3,32.0,29.00,NE,45,1.6,-999.0,99,0.00,,,0.02,Rainwise IP-100,2013-01-04 13:12:00,
2013-01-04 07:17:00,32.3,32.0,28.99,NE,45,3.7,-999.0,99,0.00,,,0.02,Rainwise IP-100,2013-01-04 13:17:00,
2013-01-04 07:22:00,32.3,32.0,29.00,NE,45,1.2,-999.0,99,0.00,,,0.02,Rainwise IP-100,2013-01-04 13:22:00,
2013-01-04 07:27:00,32.3,32.0,28.99,NNE,22,3.3,-999.0,99,0.00,,,0.02,Rainwise IP-100,2013-01-04 13:27:00,
2013-01-04 07:32:00,32.3,32.0,29.00,NNE,22,2.6,-999.0,99,0.00,,,0.02,Rainwise IP-100,2013-01-04 13:32:00,
2013-01-04 07:37:00,32.3,32.0,29.00,NNE,22,4.2,-999.0,99,0.00,,,0.02,Rainwise IP-100,2013-01-04 13:37:00,
2013-01-04 07:42:00,32.3,32.0,29.00,NE,45,2.6,-999.0,99,0.00,,,0.02,Rainwise IP-100,2013-01-04 13:42:00,
2013-01-04 07:47:00,32.3,32.0,29.00,NE,45,1.6,-999.0,99,0.00,,,0.02,Rainwise IP-100,2013-01-04 13:47:00,
2013-01-04 07:52:00,32.3,32.0,29.00,ENE,67,1.2,-999.0,99,0.00,,,0.02,Rainwise IP-100,2013-01-04 13:52:00,
2013-01-04 07:57:00,32.4,32.0,29.00,NE,45,2.3,-999.0,99,0.00,,,0.02,Rainwise IP-100,2013-01-04 13:57:00,
2013-01-04 08:02:00,32.3,32.0,29.00,NNE,22,3.5,-999.0,99,0.00,,,0.02,Rainwise IP-100,2013-01-04 14:02:00,
2013-01-04 08:07:00,32.4,32.0,29.00,NE,45,4.2,-999.0,99,0.00,,,0.02,Rainwise IP-100,2013-01-04 14:07:00,
2013-01-04 08:12:00,32.4,32.0,29.00,NE,45,2.8,-999.0,99,0.00,,,0.02,Rainwise IP-100,2013-01-04 14:12:00,
2013-01-04 08:17:00,32.4,32.0,28.99,NE,45,5.4,-999.0,99,0.00,,,0.02,Rainwise IP-100,2013-01-04 14:17:00,
2013-01-04 08:22:00,32.4,32.0,29.00,ENE,67,4.7,-999.0,99,0.00,,,0.02,Rainwise IP-100,2013-01-04 14:22:00,
2013-01-04 08:27:00,32.5,33.0,29.00,NE,45,4.4,-999.0,99,0.00,,,0.02,Rainwise IP-100,2013-01-04 14:27:00,
2013-01-04 08:32:00,32.7,33.0,29.00,NE,45,1.2,-999.0,99,0.00,,,0.02,Rainwise IP-100,2013-01-04 14:32:00,
2013-01-04 08:37:00,32.9,33.0,29.00,ENE,67,3.5,-999.0,99,0.00,,,0.02,Rainwise IP-100,2013-01-04 14:37:00,
2013-01-04 08:42:00,32.9,33.0,29.00,NE,45,0.0,-999.0,99,0.00,,,0.02,Rainwise IP-100,2013-01-04 14:42:00,
2013-01-04 08:47:00,33.0,33.0,29.00,ENE,67,3.5,-999.0,99,0.00,,,0.02,Rainwise IP-100,2013-01-04 14:47:00,
2013-01-04 08:52:00,33.0,33.0,29.01,NE,45,4.2,-999.0,99,0.00,,,0.02,Rainwise IP-100,2013-01-04 14:52:00,
2013-01-04 08:57:00,33.2,33.0,29.00,ENE,67,4.4,-999.0,99,0.00,,,0.02,Rainwise IP-100,2013-01-04 14:57:00,
2013-01-04 09:02:00,33.4,33.0,29.00,ENE,67,4.9,-999.0,99,0.00,,,0.02,Rainwise IP-100,2013-01-04 15:02:00,
2013-01-04 09:07:00,33.6,35.0,29.00,ENE,67,4.4,-999.0,99,0.00,,,0.02,Rainwise IP-100,2013-01-04 15:07:00,
2013-01-04 09:12:00,33.7,35.0,29.01,ESE,112,2.8,-999.0,99,0.00,,,0.02,Rainwise IP-100,2013-01-04 15:12:00,
2013-01-04 09:17:00,33.9,35.0,29.01,East,90,2.3,-999.0,99,0.00,,,0.02,Rainwise IP-100,2013-01-04 15:17:00,
2013-01-04 09:22:00,33.9,35.0,29.01,ENE,67,3.5,-999.0,98,0.00,,,0.02,Rainwise IP-100,2013-01-04 15:22:00,
2013-01-04 09:27:00,34.0,35.0,29.02,ENE,67,2.3,-999.0,98,0.00,,,0.02,Rainwise IP-100,2013-01-04 15:27:00,
2013-01-04 09:32:00,34.0,35.0,29.02,East,90,3.0,-999.0,98,0.00,,,0.02,Rainwise IP-100,2013-01-04 15:32:00,
2013-01-04 09:37:00,34.2,35.0,29.01,ENE,67,4.4,-999.0,98,0.00,,,0.02,Rainwise IP-100,2013-01-04 15:37:00,
2013-01-04 09:42:00,34.4,35.0,29.02,ENE,67,2.1,-999.0,98,0.00,,,0.02,Rainwise IP-100,2013-01-04 15:42:00,
2013-01-04 09:47:00,34.6,35.0,29.02,ENE,67,5.1,-999.0,98,0.00,,,0.02,Rainwise IP-100,2013-01-04 15:47:00,
2013-01-04 09:52:00,34.7,35.0,29.02,ESE,112,3.5,-999.0,98,0.00,,,0.02,Rainwise IP-100,2013-01-04 15:52:00,
2013-01-04 09:57:00,35.0,35.0,29.02,ESE,112,2.1,-999.0,98,0.00,,,0.02,Rainwise IP-100,2013-01-04 15:57:00,
2013-01-04 10:02:00,35.2,35.0,29.02,East,90,4.9,-999.0,98,0.12,,,0.04,Rainwise IP-100,2013-01-04 16:02:00,
2013-01-04 10:07:00,35.2,33.0,29.02,East,90,4.4,-999.0,97,0.18,,,0.05,Rainwise IP-100,2013-01-04 16:07:00,
2013-01-04 10:12:00,35.2,33.0,29.02,East,90,4.9,-999.0,97,0.12,,,0.06,Rainwise IP-100,2013-01-04 16:12:00,
2013-01-04 10:17:00,35.4,33.0,29.02,East,90,2.3,-999.0,97,0.06,,,0.06,Rainwise IP-100,2013-01-04 16:17:00,
2013-01-04 10:22:00,35.6,35.0,29.02,East,90,3.5,-999.0,97,0.06,,,0.08,Rainwise IP-100,2013-01-04 16:22:00,
2013-01-04 10:27:00,35.7,35.0,29.02,ENE,67,5.8,-999.0,96,0.12,,,0.08,Rainwise IP-100,2013-01-04 16:27:00,
2013-01-04 10:32:00,35.8,35.0,29.02,NE,45,4.0,-999.0,96,0.12,,,0.09,Rainwise IP-100,2013-01-04 16:32:00,
2013-01-04 10:37:00,35.7,35.0,29.02,ENE,67,4.7,-999.0,95,0.12,,,0.10,Rainwise IP-100,2013-01-04 16:37:00,
2013-01-04 10:42:00,36.0,35.0,29.02,ENE,67,4.2,-999.0,95,0.06,,,0.10,Rainwise IP-100,2013-01-04 16:42:00,
2013-01-04 10:47:00,36.3,35.0,29.02,East,90,5.8,-999.0,95,0.06,,,0.11,Rainwise IP-100,2013-01-04 16:47:00,
2013-01-04 10:52:00,36.3,35.0,29.01,ESE,112,5.4,-999.0,95,0.06,,,0.11,Rainwise IP-100,2013-01-04 16:52:00,
2013-01-04 10:57:00,36.2,35.0,29.02,ESE,112,1.2,-999.0,94,0.06,,,0.12,Rainwise IP-100,2013-01-04 16:57:00,
2013-01-04 11:02:00,36.4,35.0,29.02,East,90,2.8,-999.0,94,0.06,,,0.12,Rainwise IP-100,2013-01-04 17:02:00,
2013-01-04 11:07:00,36.5,36.0,29.01,SE,135,4.7,-999.0,94,0.00,,,0.12,Rainwise IP-100,2013-01-04 17:07:00,
2013-01-04 11:12:00,36.6,36.0,29.01,East,90,3.3,-999.0,94,0.06,,,0.13,Rainwise IP-100,2013-01-04 17:12:00,
2013-01-04 11:17:00,36.8,36.0,29.01,East,90,3.7,-999.0,94,0.06,,,0.13,Rainwise IP-100,2013-01-04 17:17:00,
2013-01-04 11:22:00,37.0,35.0,29.01,ENE,67,3.3,-999.0,93,0.00,,,0.13,Rainwise IP-100,2013-01-04 17:22:00,
2013-01-04 11:27:00,37.0,35.0,29.01,East,90,3.0,-999.0,93,0.00,,,0.13,Rainwise IP-100,2013-01-04 17:27:00,
2013-01-04 11:32:00,36.9,35.0,29.00,ESE,112,2.8,-999.0,92,0.06,,,0.14,Rainwise IP-100,2013-01-04 17:32:00,
2013-01-04 11:37:00,36.9,35.0,29.00,ENE,67,5.1,-999.0,92,0.06,,,0.14,Rainwise IP-100,2013-01-04 17:37:00,
2013-01-04 11:42:00,37.2,35.0,29.00,South,180,2.1,-999.0,91,0.00,,,0.14,Rainwise IP-100,2013-01-04 17:42:00,
2013-01-04 11:47:00,37.3,35.0,29.00,SE,135,2.1,-999.0,91,0.00,,,0.14,Rainwise IP-100,2013-01-04 17:47:00,
2013-01-04 11:52:00,37.4,35.0,28.99,ESE,112,4.2,-999.0,91,0.00,,,0.14,Rainwise IP-100,2013-01-04 17:52:00,
2013-01-04 11:57:00,37.3,35.0,28.99,SSE,157,4.2,-999.0,90,0.00,,,0.14,Rainwise IP-100,2013-01-04 17:57:00,
2013-01-04 12:02:00,37.2,35.0,28.99,SE,135,3.7,-999.0,90,0.00,,,0.14,Rainwise IP-100,2013-01-04 18:02:00,
2013-01-04 12:07:00,37.1,35.0,28.98,SE,135,5.6,-999.0,90,0.00,,,0.14,Rainwise IP-100,2013-01-04 18:07:00,
2013-01-04 12:12:00,37.2,35.0,28.98,ESE,112,1.2,-999.0,90,0.00,,,0.14,Rainwise IP-100,2013-01-04 18:12:00,
2013-01-04 12:17:00,37.5,36.0,28.98,SE,135,2.8,-999.0,90,0.00,,,0.14,Rainwise IP-100,2013-01-04 18:17:00,
2013-01-04 12:22:00,37.9,36.0,28.97,ESE,112,4.9,-999.0,90,0.00,,,0.14,Rainwise IP-100,2013-01-04 18:22:00,
2013-01-04 12:27:00,38.1,35.0,28.97,SSE,157,3.0,-999.0,89,0.00,,,0.14,Rainwise IP-100,2013-01-04 18:27:00,
2013-01-04 12:32:00,38.0,35.0,28.97,ESE,112,4.2,-999.0,89,0.00,,,0.14,Rainwise IP-100,2013-01-04 18:32:00,
2013-01-04 12:38:00,38.0,35.0,28.97,East,90,2.3,-999.0,89,0.00,,,0.14,Rainwise IP-100,2013-01-04 18:38:00,
2013-01-04 12:43:00,38.1,35.0,28.97,SE,135,3.7,-999.0,88,0.00,,,0.14,Rainwise IP-100,2013-01-04 18:43:00,
2013-01-04 12:48:00,38.1,35.0,28.96,South,180,6.1,-999.0,87,0.00,,,0.14,Rainwise IP-100,2013-01-04 18:48:00,
2013-01-04 12:53:00,38.1,35.0,28.96,SE,135,3.7,-999.0,87,0.00,,,0.14,Rainwise IP-100,2013-01-04 18:53:00,
2013-01-04 12:58:00,38.1,35.0,28.96,SSW,202,4.2,-999.0,87,0.00,,,0.14,Rainwise IP-100,2013-01-04 18:58:00,
2013-01-04 13:03:00,38.0,35.0,28.95,SSE,157,5.1,-999.0,87,0.00,,,0.14,Rainwise IP-100,2013-01-04 19:03:00,
2013-01-04 13:08:00,38.1,35.0,28.95,East,90,3.3,-999.0,87,0.00,,,0.14,Rainwise IP-100,2013-01-04 19:08:00,
2013-01-04 13:13:00,38.1,35.0,28.94,SSE,157,4.2,-999.0,86,0.00,,,0.14,Rainwise IP-100,2013-01-04 19:13:00,
2013-01-04 13:18:00,38.1,35.0,28.94,SSE,157,4.0,-999.0,86,0.00,,,0.14,Rainwise IP-100,2013-01-04 19:18:00,
2013-01-04 13:23:00,38.3,35.0,28.94,SE,135,3.7,-999.0,86,0.00,,,0.14,Rainwise IP-100,2013-01-04 19:23:00,
2013-01-04 13:28:00,38.4,35.0,28.93,SSE,157,3.5,-999.0,86,0.00,,,0.14,Rainwise IP-100,2013-01-04 19:28:00,
2013-01-04 13:33:00,38.5,36.0,28.93,SSE,157,4.0,-999.0,86,0.00,,,0.14,Rainwise IP-100,2013-01-04 19:33:00,
2013-01-04 13:38:00,38.5,35.0,28.93,SE,135,1.4,-999.0,85,0.00,,,0.14,Rainwise IP-100,2013-01-04 19:38:00,
2013-01-04 13:43:00,38.6,35.0,28.93,SSE,157,1.9,-999.0,85,0.00,,,0.14,Rainwise IP-100,2013-01-04 19:43:00,
2013-01-04 13:48:00,38.8,35.0,28.93,SSE,157,4.0,-999.0,84,0.00,,,0.14,Rainwise IP-100,2013-01-04 19:48:00,
2013-01-04 13:53:00,38.9,35.0,28.92,ESE,112,2.6,-999.0,84,0.00,,,0.14,Rainwise IP-100,2013-01-04 19:53:00,
2013-01-04 13:59:00,39.0,35.0,28.93,SE,135,3.5,-999.0,84,0.00,,,0.14,Rainwise IP-100,2013-01-04 19:59:00,
2013-01-04 14:04:00,39.0,35.0,28.93,SSE,157,2.1,-999.0,84,0.00,,,0.14,Rainwise IP-100,2013-01-04 20:04:00,
2013-01-04 14:09:00,39.1,35.0,28.92,SSE,157,5.6,-999.0,84,0.00,,,0.14,Rainwise IP-100,2013-01-04 20:09:00,
2013-01-04 14:14:00,39.0,35.0,28.92,SSW,202,1.4,-999.0,84,0.00,,,0.14,Rainwise IP-100,2013-01-04 20:14:00,
2013-01-04 14:19:00,39.0,35.0,28.92,South,180,3.3,-999.0,83,0.00,,,0.14,Rainwise IP-100,2013-01-04 20:19:00,
2013-01-04 14:24:00,39.1,35.0,28.92,South,180,4.4,-999.0,83,0.00,,,0.14,Rainwise IP-100,2013-01-04 20:24:00,
2013-01-04 14:29:00,39.2,35.0,28.91,SW,225,2.1,-999.0,83,0.00,,,0.14,Rainwise IP-100,2013-01-04 20:29:00,
2013-01-04 14:34:00,39.3,35.0,28.92,SSW,202,3.5,-999.0,83,0.00,,,0.14,Rainwise IP-100,2013-01-04 20:34:00,
2013-01-04 14:39:00,39.3,35.0,28.91,SSW,202,2.1,-999.0,83,0.00,,,0.14,Rainwise IP-100,2013-01-04 20:39:00,
2013-01-04 14:44:00,39.4,35.0,28.91,SSE,157,3.5,-999.0,82,0.00,,,0.14,Rainwise IP-100,2013-01-04 20:44:00,
2013-01-04 14:49:00,39.4,35.0,28.90,SSE,157,1.6,-999.0,82,0.00,,,0.14,Rainwise IP-100,2013-01-04 20:49:00,
2013-01-04 14:54:00,39.5,36.0,28.91,SSW,202,2.1,-999.0,82,0.00,,,0.14,Rainwise IP-100,2013-01-04 20:54:00,
2013-01-04 14:59:00,39.6,36.0,28.90,ESE,112,3.7,-999.0,82,0.00,,,0.14,Rainwise IP-100,2013-01-04 20:59:00,
2013-01-04 15:04:00,39.6,36.0,28.90,South,180,1.9,-999.0,82,0.00,,,0.14,Rainwise IP-100,2013-01-04 21:04:00,
2013-01-04 15:10:00,39.7,36.0,28.90,SE,135,0.0,-999.0,82,0.00,,,0.14,Rainwise IP-100,2013-01-04 21:10:00,
2013-01-04 15:15:00,39.7,35.0,28.90,SSE,157,1.2,-999.0,81,0.00,,,0.14,Rainwise IP-100,2013-01-04 21:15:00,
2013-01-04 15:20:00,39.8,35.0,28.90,SW,225,2.1,-999.0,81,0.00,,,0.14,Rainwise IP-100,2013-01-04 21:20:00,
2013-01-04 15:25:00,39.8,35.0,28.91,South,180,0.0,-999.0,81,0.00,,,0.14,Rainwise IP-100,2013-01-04 21:25:00,
2013-01-04 15:30:00,39.8,35.0,28.90,ESE,112,1.6,-999.0,81,0.00,,,0.14,Rainwise IP-100,2013-01-04 21:30:00,
2013-01-04 15:35:00,39.9,35.0,28.90,SSE,157,2.1,-999.0,81,0.00,,,0.14,Rainwise IP-100,2013-01-04 21:35:00,
2013-01-04 15:40:00,39.8,35.0,28.91,SSW,202,1.2,-999.0,81,0.00,,,0.14,Rainwise IP-100,2013-01-04 21:40:00,
2013-01-04 15:45:00,39.6,35.0,28.90,SSW,202,1.9,-999.0,81,0.00,,,0.14,Rainwise IP-100,2013-01-04 21:45:00,
2013-01-04 15:50:00,39.6,35.0,28.90,SE,135,2.3,-999.0,81,0.00,,,0.14,Rainwise IP-100,2013-01-04 21:50:00,
2013-01-04 15:55:00,39.6,35.0,28.90,SE,135,1.9,-999.0,81,0.00,,,0.14,Rainwise IP-100,2013-01-04 21:55:00,
2013-01-04 16:00:00,39.6,35.0,28.90,SSE,157,0.0,-999.0,81,0.00,,,0.14,Rainwise IP-100,2013-01-04 22:00:00,
2013-01-04 16:05:00,39.7,35.0,28.90,SSE,157,2.3,-999.0,81,0.00,,,0.14,Rainwise IP-100,2013-01-04 22:05:00,
2013-01-04 16:10:00,39.6,35.0,28.90,SE,135,0.0,-999.0,81,0.00,,,0.14,Rainwise IP-100,2013-01-04 22:10:00,
2013-01-04 16:15:00,39.6,35.0,28.90,SSE,157,3.3,-999.0,81,0.00,,,0.14,Rainwise IP-100,2013-01-04 22:15:00,
2013-01-04 16:20:00,39.6,35.0,28.90,SSE,157,2.3,-999.0,81,0.00,,,0.14,Rainwise IP-100,2013-01-04 22:20:00,
2013-01-04 16:25:00,39.6,35.0,28.89,SSE,157,0.0,-999.0,81,0.00,,,0.14,Rainwise IP-100,2013-01-04 22:25:00,
2013-01-04 16:30:00,39.7,35.0,28.90,SSW,202,2.3,-999.0,81,0.00,,,0.14,Rainwise IP-100,2013-01-04 22:30:00,
2013-01-04 16:35:00,39.7,36.0,28.90,South,180,1.4,-999.0,82,0.00,,,0.14,Rainwise IP-100,2013-01-04 22:35:00,
2013-01-04 16:40:00,39.7,36.0,28.89,SSE,157,1.9,-999.0,82,0.00,,,0.14,Rainwise IP-100,2013-01-04 22:40:00,
2013-01-04 16:45:00,39.6,36.0,28.89,ESE,112,1.4,-999.0,82,0.00,,,0.14,Rainwise IP-100,2013-01-04 22:45:00,
2013-01-04 16:50:00,39.5,36.0,28.88,ESE,112,1.9,-999.0,82,0.00,,,0.14,Rainwise IP-100,2013-01-04 22:50:00,
2013-01-04 16:55:00,39.6,36.0,28.88,ESE,112,1.2,-999.0,82,0.00,,,0.14,Rainwise IP-100,2013-01-04 22:55:00,
2013-01-04 17:00:00,39.7,36.0,28.89,SE,135,2.3,-999.0,82,0.00,,,0.14,Rainwise IP-100,2013-01-04 23:00:00,
2013-01-04 17:05:00,39.6,36.0,28.89,SE,135,3.5,-999.0,82,0.00,,,0.14,Rainwise IP-100,2013-01-04 23:05:00,
2013-01-04 17:10:00,39.6,36.0,28.90,SE,135,3.0,-999.0,82,0.00,,,0.14,Rainwise IP-100,2013-01-04 23:10:00,
2013-01-04 17:15:00,39.5,36.0,28.89,SSW,202,1.9,-999.0,82,0.00,,,0.14,Rainwise IP-100,2013-01-04 23:15:00,
2013-01-04 17:20:00,39.5,36.0,28.89,South,180,1.6,-999.0,83,0.00,,,0.14,Rainwise IP-100,2013-01-04 23:20:00,
2013-01-04 17:25:00,39.4,35.0,28.90,SSE,157,2.8,-999.0,83,0.00,,,0.14,Rainwise IP-100,2013-01-04 23:25:00,
2013-01-04 17:30:00,39.3,35.0,28.90,SSE,157,1.9,-999.0,83,0.00,,,0.14,Rainwise IP-100,2013-01-04 23:30:00,
2013-01-04 17:35:00,39.3,35.0,28.89,South,180,1.9,-999.0,83,0.00,,,0.14,Rainwise IP-100,2013-01-04 23:35:00,
2013-01-04 17:40:00,39.3,35.0,28.89,SSW,202,0.0,-999.0,83,0.00,,,0.14,Rainwise IP-100,2013-01-04 23:40:00,
2013-01-04 17:45:00,39.3,35.0,28.90,SSE,157,2.1,-999.0,83,0.00,,,0.14,Rainwise IP-100,2013-01-04 23:45:00,
2013-01-04 17:50:00,39.2,35.0,28.91,South,180,2.8,-999.0,83,0.00,,,0.14,Rainwise IP-100,2013-01-04 23:50:00,
2013-01-04 17:55:00,39.3,35.0,28.90,SSW,202,1.6,-999.0,84,0.00,,,0.14,Rainwise IP-100,2013-01-04 23:55:00,
2013-01-04 18:00:00,39.2,35.0,28.90,SSW,202,1.9,-999.0,84,0.00,,,0.14,Rainwise IP-100,2013-01-05 00:00:00,
2013-01-04 18:05:00,39.2,35.0,28.91,South,180,2.8,-999.0,84,0.00,,,0.14,Rainwise IP-100,2013-01-05 00:05:00,
2013-01-04 18:10:00,39.2,35.0,28.90,South,180,2.6,-999.0,84,0.00,,,0.14,Rainwise IP-100,2013-01-05 00:10:00,
2013-01-04 18:15:00,39.2,35.0,28.90,South,180,1.2,-999.0,84,0.00,,,0.14,Rainwise IP-100,2013-01-05 00:15:00,
2013-01-04 18:20:00,39.2,35.0,28.90,South,180,1.6,-999.0,84,0.00,,,0.14,Rainwise IP-100,2013-01-05 00:20:00,
2013-01-04 18:25:00,39.2,35.0,28.91,SSW,202,1.6,-999.0,84,0.00,,,0.14,Rainwise IP-100,2013-01-05 00:25:00,
2013-01-04 18:30:00,39.2,35.0,28.90,SSW,202,1.9,-999.0,85,0.00,,,0.14,Rainwise IP-100,2013-01-05 00:30:00,
2013-01-04 18:35:00,39.1,35.0,28.90,ESE,112,0.0,-999.0,85,0.00,,,0.14,Rainwise IP-100,2013-01-05 00:35:00,
2013-01-04 18:40:00,39.1,35.0,28.91,ESE,112,0.0,-999.0,85,0.00,,,0.14,Rainwise IP-100,2013-01-05 00:40:00,
2013-01-04 18:45:00,39.0,36.0,28.91,South,180,0.0,-999.0,86,0.00,,,0.14,Rainwise IP-100,2013-01-05 00:45:00,
2013-01-04 18:50:00,39.0,36.0,28.90,South,180,1.2,-999.0,86,0.00,,,0.14,Rainwise IP-100,2013-01-05 00:50:00,
2013-01-04 18:55:00,39.0,36.0,28.90,South,180,3.5,-999.0,86,0.00,,,0.14,Rainwise IP-100,2013-01-05 00:55:00,
2013-01-04 19:00:00,39.0,36.0,28.90,SSE,157,0.0,-999.0,86,0.00,,,0.14,Rainwise IP-100,2013-01-05 01:00:00,
2013-01-04 19:05:00,39.0,36.0,28.90,SSE,157,0.0,-999.0,86,0.00,,,0.14,Rainwise IP-100,2013-01-05 01:05:00,
2013-01-04 19:10:00,38.9,36.0,28.91,SSE,157,1.2,-999.0,86,0.00,,,0.14,Rainwise IP-100,2013-01-05 01:10:00,
2013-01-04 19:15:00,38.9,36.0,28.90,SSE,157,0.0,-999.0,86,0.00,,,0.14,Rainwise IP-100,2013-01-05 01:15:00,
2013-01-04 19:20:00,38.9,36.0,28.90,SSE,157,0.0,-999.0,87,0.00,,,0.14,Rainwise IP-100,2013-01-05 01:20:00,
2013-01-04 19:25:00,38.8,36.0,28.91,South,180,2.1,-999.0,87,0.00,,,0.14,Rainwise IP-100,2013-01-05 01:25:00,
2013-01-04 19:30:00,38.7,36.0,28.91,South,180,0.0,-999.0,87,0.00,,,0.14,Rainwise IP-100,2013-01-05 01:30:00,
2013-01-04 19:35:00,38.6,36.0,28.90,South,180,0.0,-999.0,87,0.00,,,0.14,Rainwise IP-100,2013-01-05 01:35:00,
2013-01-04 19:40:00,38.5,36.0,28.91,South,180,1.2,-999.0,88,0.00,,,0.14,Rainwise IP-100,2013-01-05 01:40:00,
2013-01-04 19:45:00,38.3,35.0,28.91,South,180,1.2,-999.0,89,0.00,,,0.14,Rainwise IP-100,2013-01-05 01:45:00,
2013-01-04 19:50:00,38.3,35.0,28.91,South,180,1.6,-999.0,89,0.00,,,0.14,Rainwise IP-100,2013-01-05 01:50:00,
2013-01-04 19:55:00,38.3,36.0,28.91,South,180,1.2,-999.0,90,0.00,,,0.14,Rainwise IP-100,2013-01-05 01:55:00,
2013-01-04 20:00:00,38.3,36.0,28.92,South,180,1.9,-999.0,90,0.00,,,0.14,Rainwise IP-100,2013-01-05 02:00:00,
2013-01-04 20:05:00,38.3,36.0,28.92,SSE,157,3.5,-999.0,91,0.00,,,0.14,Rainwise IP-100,2013-01-05 02:05:00,
2013-01-04 20:10:00,38.3,36.0,28.91,South,180,3.3,-999.0,90,0.00,,,0.14,Rainwise IP-100,2013-01-05 02:10:00,
2013-01-04 20:15:00,38.3,36.0,28.92,SSW,202,2.1,-999.0,90,0.00,,,0.14,Rainwise IP-100,2013-01-05 02:15:00,
2013-01-04 20:20:00,38.3,36.0,28.92,SSW,202,3.0,-999.0,90,0.00,,,0.14,Rainwise IP-100,2013-01-05 02:20:00,
2013-01-04 20:25:00,38.2,36.0,28.92,South,180,1.9,-999.0,91,0.00,,,0.14,Rainwise IP-100,2013-01-05 02:25:00,
2013-01-04 20:30:00,38.1,36.0,28.91,SSE,157,1.2,-999.0,91,0.00,,,0.14,Rainwise IP-100,2013-01-05 02:30:00,
2013-01-04 20:35:00,38.0,36.0,28.91,South,180,1.9,-999.0,91,0.00,,,0.14,Rainwise IP-100,2013-01-05 02:35:00,
2013-01-04 20:40:00,37.9,36.0,28.92,SSE,157,1.2,-999.0,91,0.00,,,0.14,Rainwise IP-100,2013-01-05 02:40:00,
2013-01-04 20:45:00,37.8,36.0,28.92,SSE,157,1.9,-999.0,91,0.00,,,0.14,Rainwise IP-100,2013-01-05 02:45:00,
2013-01-04 20:50:00,37.7,36.0,28.92,SSE,157,2.1,-999.0,91,0.00,,,0.14,Rainwise IP-100,2013-01-05 02:50:00,
2013-01-04 20:55:00,37.6,36.0,28.92,South,180,0.0,-999.0,91,0.00,,,0.14,Rainwise IP-100,2013-01-05 02:55:00,
2013-01-04 21:00:00,37.5,36.0,28.92,SSE,157,0.0,-999.0,91,0.00,,,0.14,Rainwise IP-100,2013-01-05 03:00:00,
2013-01-04 21:05:00,37.5,36.0,28.92,South,180,0.0,-999.0,92,0.00,,,0.14,Rainwise IP-100,2013-01-05 03:05:00,
2013-01-04 21:10:00,37.4,35.0,28.91,SSE,157,1.6,-999.0,93,0.00,,,0.14,Rainwise IP-100,2013-01-05 03:10:00,
2013-01-04 21:15:00,37.3,36.0,28.91,SSE,157,1.6,-999.0,94,0.00,,,0.14,Rainwise IP-100,2013-01-05 03:15:00,
2013-01-04 21:20:00,37.1,36.0,28.91,SSE,157,1.6,-999.0,94,0.00,,,0.14,Rainwise IP-100,2013-01-05 03:20:00,
2013-01-04 21:25:00,37.0,36.0,28.92,SSE,157,3.0,-999.0,95,0.00,,,0.14,Rainwise IP-100,2013-01-05 03:25:00,
2013-01-04 21:30:00,37.0,36.0,28.91,SSE,157,1.2,-999.0,95,0.00,,,0.14,Rainwise IP-100,2013-01-05 03:30:00,
2013-01-04 21:35:00,37.0,36.0,28.92,South,180,1.4,-999.0,96,0.00,,,0.14,Rainwise IP-100,2013-01-05 03:35:00,
2013-01-04 21:40:00,36.9,36.0,28.92,SSW,202,1.6,-999.0,96,0.00,,,0.14,Rainwise IP-100,2013-01-05 03:40:00,
2013-01-04 21:45:00,36.9,36.0,28.91,SSE,157,0.0,-999.0,97,0.00,,,0.14,Rainwise IP-100,2013-01-05 03:45:00,
2013-01-04 21:50:00,36.9,36.0,28.91,SSE,157,1.9,-999.0,97,0.00,,,0.14,Rainwise IP-100,2013-01-05 03:50:00,
2013-01-04 21:55:00,36.9,36.0,28.91,SSE,157,2.8,-999.0,97,0.00,,,0.14,Rainwise IP-100,2013-01-05 03:55:00,
2013-01-04 22:00:00,36.9,36.0,28.91,SSE,157,2.3,-999.0,97,0.00,,,0.14,Rainwise IP-100,2013-01-05 04:00:00,
2013-01-04 22:05:00,36.9,37.0,28.91,South,180,1.6,-999.0,98,0.00,,,0.14,Rainwise IP-100,2013-01-05 04:05:00,
2013-01-04 22:10:00,36.9,37.0,28.91,SSE,157,1.6,-999.0,98,0.00,,,0.14,Rainwise IP-100,2013-01-05 04:10:00,
2013-01-04 22:15:00,36.9,37.0,28.91,SSE,157,0.0,-999.0,98,0.00,,,0.14,Rainwise IP-100,2013-01-05 04:15:00,
2013-01-04 22:20:00,37.0,37.0,28.90,SSE,157,1.4,-999.0,98,0.00,,,0.14,Rainwise IP-100,2013-01-05 04:20:00,
2013-01-04 22:25:00,37.0,37.0,28.90,SE,135,1.2,-999.0,98,0.00,,,0.14,Rainwise IP-100,2013-01-05 04:25:00,
2013-01-04 22:30:00,37.0,37.0,28.90,SSE,157,1.4,-999.0,98,0.00,,,0.14,Rainwise IP-100,2013-01-05 04:30:00,
2013-01-04 22:35:00,37.0,37.0,28.90,SSE,157,3.0,-999.0,98,0.00,,,0.14,Rainwise IP-100,2013-01-05 04:35:00,
2013-01-04 22:40:00,37.1,37.0,28.90,SE,135,1.6,-999.0,98,0.00,,,0.14,Rainwise IP-100,2013-01-05 04:40:00,
2013-01-04 22:45:00,37.2,37.0,28.90,SSE,157,1.4,-999.0,99,0.00,,,0.14,Rainwise IP-100,2013-01-05 04:45:00,
2013-01-04 22:50:00,37.2,37.0,28.90,SSE,157,2.3,-999.0,99,0.00,,,0.14,Rainwise IP-100,2013-01-05 04:50:00,
2013-01-04 22:55:00,37.1,37.0,28.90,SSE,157,1.9,-999.0,99,0.00,,,0.14,Rainwise IP-100,2013-01-05 04:55:00,
2013-01-04 23:00:00,37.1,37.0,28.90,SSE,157,0.0,-999.0,99,0.00,,,0.14,Rainwise IP-100,2013-01-05 05:00:00,
2013-01-04 23:05:00,37.2,37.0,28.90,SSE,157,1.6,-999.0,99,0.00,,,0.14,Rainwise IP-100,2013-01-05 05:05:00,
2013-01-04 23:10:00,37.2,37.0,28.90,SSW,202,1.6,-999.0,99,0.00,,,0.14,Rainwise IP-100,2013-01-05 05:10:00,
2013-01-04 23:15:00,37.2,37.0,28.89,SSW,202,1.4,-999.0,99,0.00,,,0.14,Rainwise IP-100,2013-01-05 05:15:00,
2013-01-04 23:20:00,37.2,37.0,28.90,SSW,202,1.6,-999.0,99,0.00,,,0.14,Rainwise IP-100,2013-01-05 05:20:00,
2013-01-04 23:25:00,37.2,37.0,28.90,SSW,202,1.4,-999.0,99,0.00,,,0.14,Rainwise IP-100,2013-01-05 05:25:00,
2013-01-04 23:30:00,37.2,37.0,28.89,SSW,202,1.2,-999.0,99,0.00,,,0.14,Rainwise IP-100,2013-01-05 05:30:00,
2013-01-04 23:35:00,37.2,37.0,28.90,SSW,202,1.4,-999.0,99,0.00,,,0.14,Rainwise IP-100,2013-01-05 05:35:00,
2013-01-04 23:40:00,37.2,37.0,28.89,SSW,202,0.0,-999.0,99,0.00,,,0.14,Rainwise IP-100,2013-01-05 05:40:00,
2013-01-04 23:43:00,37.2,37.0,28.89,South,180,1.6,-999.0,99,0.00,,,0.14,Rainwise IP-100,2013-01-05 05:43:00,
2013-01-04 23:48:00,37.2,37.0,28.89,South,180,2.3,-999.0,99,0.00,,,0.14,Rainwise IP-100,2013-01-05 05:48:00,
2013-01-04 23:53:00,37.3,37.0,28.89,SSE,157,1.2,-999.0,99,0.00,,,0.14,Rainwise IP-100,2013-01-05 05:53:00,
2013-01-04 23:58:00,37.3,37.0,28.89,SSE,157,1.9,-999.0,99,0.00,,,0.14,Rainwise IP-100,2013-01-05 05:58:00,